183  
ASUS45 KSLC 250210  
RWRUT  
 
UTAH REGIONAL WEATHER ROUNDUP  
NATIONAL WEATHER SERVICE SALT LAKE CITY UT  
800 PM MDT WED MAY 24 2017  
 
UTZ001>011-023>025-250300-  
 
NORTHERN UTAH  
 
CITY SKY/WX TMP DP RH WIND PRES REMARKS
 
BRIGHAM CITY CLOUDY 78 42 27 NW7 29.51R  
HILL AFB LGT RAIN 64 48 55 S20G37 29.58F  
LOGAN PTCLDY 72 55 55 N8 29.51F  
OGDEN LGT RAIN 66 50 56 S20G36 29.57R  
SALT LAKE CITY LGT RAIN 72 45 37 W23G32 29.59R  
TOOELE VALLEY CLOUDY 64 50 59 SE10 29.58F  
WENDOVER CLOUDY 82 31 15 SW16 29.51F  
WEST JORDAN CLOUDY 73 48 41 W8 29.61S  
 

 
 
UTZ011>015-024>027-250300-  
 
CENTRAL/NORTHEAST UTAH  
 
CITY SKY/WX TMP DP RH WIND PRES REMARKS
 
PROVO AIRPORT CLOUDY 73 49 42 NW12 29.58R  
MOAB/CANYONLAN MOCLDY 82 26 13 W12 29.56F  
DELTA CLOUDY 75 32 20 NW30G38 29.63R  
PRICE MOCLDY 76 29 17 W6 29.65F  
ROOSEVELT CLEAR 77 32 19 NW15G24 29.61R  
VERNAL PTCLDY 78 29 16 W13 29.57F  
 

 
 
UTZ013>016-019>022-027-250300-  
 
SOUTHERN UTAH  
 
CITY SKY/WX TMP DP RH WIND PRES REMARKS
 
BRYCE CANYON CLEAR 69 20 15 W17G28 29.89F  
CEDAR CITY PTCLDY 79 15 9 S25G33 29.71F  
MILFORD MOCLDY 79 29 16 W23G45 29.67R  
ST GEORGE CLOUDY 93 14 5 SW28G43 29.53S  
HANKSVILLE PTCLDY 88 23 9 W17G30 29.58R  
BLANDING CLEAR 78 22 12 SW12G25 29.80F  
 

 
 
REGIONAL REPORTS COLORADO/ARIZONA  
 
CITY SKY/WX TMP DP RH WIND PRES REMARKS
 
CRAIG, CO CLOUDY 67 37 33 SW9 29.66F  
GRAND JUNCTION CLEAR 82 28 14 W21G28 29.59S  
RIFLE, CO CLEAR 79 24 13 W17 29.62F  
MONTROSE, CO CLOUDY 76 27 16 SW9 29.70S  
CORTEZ, CO CLEAR 76 26 15 SW7 29.76F  
COLORADO CITY N/A 86 23 10 SW26G38 29.75S  
PAGE, AZ PTCLDY 89 22 8 SW13G23 29.63F  
GRAND CANYON MOCLDY 74 22 14 SW13G20 29.91S  
KINGMAN, AZ MOCLDY 89 23 9 SW16G24 29.69F  
FLAGSTAFF, AZ PTCLDY 72 21 14 SW10G25 29.95F  
 

 
 
REGIONAL REPORTS NEVADA/IDAHO/WYOMING  
 
CITY SKY/WX TMP DP RH WIND PRES REMARKS
 
LAS VEGAS, NV PTCLDY 97 8 4 SW20G29 29.52F HX 90  
ELY, NY MOCLDY 63 41 44 SW9 29.75F  
ELKO, NV CLEAR 77 24 14 W18G31 29.59F  
POCATELLO, ID PTCLDY 65 32 29 W18 29.59R  
BURLEY, ID MOCLDY 65 29 25 W10G21 29.58F  
FORT BRIDGER, N/A 66 33 29 SW20G28 29.72S  
EVANSTON, WY N/A 60 39 45 SW13 29.70F  
ROCK SPRINGS, CLOUDY 68 29 23 W30G36 29.65S  
KEMMERER, WY N/A 59 37 44 SW10 29.69S  
 

 
 
 
CLICK HERE TO GO TO PREVIOUS BULLETINS.

The Nexlab UT Page Main Text Page